User: anonymous   Login
Location: Unspecified
(0.0000°N, 0.0000°E)
Time: 12:06:24
(UTC+00:00)
Language:

CAS-4A - Orbit

View from above orbital plane
View from above orbital plane
View from above satellite
View from above satellite

Ground track
Ground track

The orbit data is extracted from the following two-line orbital elements,

1 42761U 17034D   19085.21714971  .00000232  00000-0  27733-4 0  9993
2 42761  43.0193 334.3015 0010050  76.5316  69.9835 15.09593871 98066
Epoch (UTC): 26 March 2019 05:12:41
Eccentricity: 0.0010050
inclination: 43.0193°
perigee height: 530 km
apogee height: 544 km
right ascension of ascending node: 334.3015°
argument of perigee: 76.5316°
revolutions per day: 15.09593871
mean anomaly at epoch: 69.9835°
orbit number at epoch: 9806

The dashed part of the orbit path shows where the satellite is in the earth's shadow,  

DLR